Date String (YYYY-MM-DD hh:mm:ss) UTC,Instrument flags,Ambient pressure (hPa),Sample flow (lpm),Bypass flow (lpm),Sample temperature (°C),Ambient temperature (°C),ASC tube jacket temperature (°C),LED temperature (°C),Box temperature (°C),Sample RH (%),Mass concentration (μg/m³),Mass concentration (μg/m³)
DateTimeUTC,F1_M11,P_M11,Q1_M11,Q2_M11,T1_M11,T2_M11,T3_M11,T4_M11,T5_M11,U1_M11,X0_M11,X2_M11
2021-08-14 17:00:00,,0834.3,5.01,0.00,30.8,28.1,00.0,39.0,31.6,34.8,0025.29,0011.16
2021-08-14 17:01:00,,0834.3,5.00,0.00,30.9,28.3,00.0,39.1,31.7,34.1,0025.19,0011.06
2021-08-14 17:02:00,,0834.3,4.99,0.00,31.0,28.3,00.0,39.1,31.7,34.1,0025.36,0010.94
2021-08-14 17:03:00,,0834.3,5.02,0.00,31.0,27.1,00.0,39.2,31.3,34.3,0026.08,0010.91
2021-08-14 17:04:00,,0834.3,5.00,0.00,30.9,26.2,00.0,39.2,31.1,34.8,0026.54,0010.95
2021-08-14 17:05:00,,0834.3,4.98,0.00,30.8,26.3,00.0,39.2,31.1,35.0,0026.75,0010.97
2021-08-14 17:06:00,,0834.2,5.02,0.00,30.8,26.7,00.0,39.2,31.3,35.2,0025.59,0010.88
2021-08-14 17:07:00,,0834.3,5.00,0.00,31.0,27.1,00.0,39.2,31.5,34.6,0024.70,0010.82
2021-08-14 17:08:00,,0834.3,5.00,0.00,31.1,27.5,00.0,39.2,31.6,34.6,0024.14,0010.77
2021-08-14 17:09:00,,0834.3,5.01,0.00,31.1,27.8,00.0,39.3,31.6,34.4,0024.55,0010.79
2021-08-14 17:10:00,,0834.3,4.99,0.00,31.2,28.1,00.0,39.3,31.7,34.6,0024.64,0010.67
2021-08-14 17:11:00,,0834.3,4.99,0.00,31.2,28.3,00.0,39.4,31.8,34.4,0023.96,0010.65
2021-08-14 17:12:00,,0834.3,5.01,0.00,31.2,28.4,00.0,39.4,31.8,34.4,0023.79,0010.67
2021-08-14 17:13:00,,0834.3,5.00,0.00,31.1,27.3,00.0,39.4,31.4,34.6,0023.88,0010.68
2021-08-14 17:14:00,,0834.3,5.01,0.00,31.0,26.3,00.0,39.5,31.2,34.7,0023.05,0010.72
2021-08-14 17:15:00,,0834.3,4.99,0.00,30.9,26.3,00.0,39.5,31.2,34.9,0022.45,0010.68
2021-08-14 17:16:00,,0834.2,5.01,0.00,30.8,26.7,00.0,39.4,31.3,35.3,0022.82,0010.69
2021-08-14 17:17:00,,0834.1,5.00,0.00,30.9,27.1,00.0,39.4,31.5,35.5,0023.65,0010.70
2021-08-14 17:18:00,,0834.2,5.00,0.00,31.2,27.5,00.0,39.4,31.8,34.7,0023.73,0010.70
2021-08-14 17:19:00,,0834.3,5.00,0.00,31.4,27.8,00.0,39.4,31.9,34.1,0023.77,0010.70
2021-08-14 17:20:00,,0834.2,5.00,0.00,31.5,28.1,00.0,39.5,31.9,33.5,0023.93,0010.63
2021-08-14 17:21:00,,0834.2,4.99,0.00,31.6,28.3,00.0,39.5,32.0,33.2,0023.67,0010.69
2021-08-14 17:22:00,,0834.2,5.00,0.00,31.6,28.0,00.0,39.6,31.8,33.5,0023.56,0010.69
2021-08-14 17:23:00,,0834.2,5.01,0.00,31.5,26.7,00.0,39.6,31.4,33.4,0024.43,0010.70
2021-08-14 17:24:00,,0834.1,5.00,0.00,31.4,26.2,00.0,39.6,31.3,33.4,0025.76,0010.77
2021-08-14 17:25:00,,0834.1,5.00,0.00,31.3,26.5,00.0,39.7,31.4,33.8,0025.98,0010.77
2021-08-14 17:26:00,,0834.1,5.00,0.00,31.2,26.9,00.0,39.6,31.4,33.9,0026.16,0010.77
2021-08-14 17:27:00,,0834.1,5.01,0.00,31.1,27.3,00.0,39.6,31.5,34.5,0026.26,0010.70
2021-08-14 17:28:00,,0834.1,5.00,0.00,31.1,27.6,00.0,39.6,31.6,34.3,0025.55,0010.70
2021-08-14 17:29:00,,0834.1,5.00,0.00,31.1,28.0,00.0,39.6,31.7,34.1,0026.24,0010.74
2021-08-14 17:30:00,,0834.1,4.99,0.00,31.0,28.2,00.0,39.6,31.7,34.3,0025.91,0010.75
2021-08-14 17:31:00,,0834.1,5.00,0.00,31.0,28.0,00.0,39.6,31.7,34.6,0026.19,0010.80
2021-08-14 17:32:00,,0834.1,5.01,0.00,31.0,26.8,00.0,39.6,31.3,35.3,0026.68,0010.81
2021-08-14 17:33:00,,0834.1,5.00,0.00,31.0,26.2,00.0,39.6,31.3,34.2,0026.33,0010.77
2021-08-14 17:34:00,,0834.0,5.01,0.00,31.1,26.4,00.0,39.6,31.4,34.0,0025.06,0010.74
2021-08-14 17:35:00,,0834.1,4.99,0.00,31.1,26.8,00.0,39.5,31.4,34.1,0023.29,0010.67
2021-08-14 17:36:00,,0834.1,5.00,0.00,31.0,27.2,00.0,39.5,31.5,34.3,0023.13,0010.69
2021-08-14 17:37:00,,0834.1,5.01,0.00,31.0,27.6,00.0,39.5,31.6,34.4,0023.03,0010.66
2021-08-14 17:38:00,,0834.0,5.00,0.00,31.0,27.9,00.0,39.5,31.7,34.2,0022.51,0010.70
2021-08-14 17:39:00,,0834.1,4.98,0.00,31.0,28.2,00.0,39.5,31.7,34.1,0022.27,0010.73
2021-08-14 17:40:00,,0834.0,4.99,0.00,31.0,28.0,00.0,39.6,31.7,34.5,0021.62,0010.77
2021-08-14 17:41:00,,0834.0,5.00,0.00,30.9,26.8,00.0,39.5,31.3,35.6,0021.75,0010.83
2021-08-14 17:42:00,,0834.0,5.01,0.00,31.0,26.1,00.0,39.5,31.2,35.5,0021.67,0010.83
2021-08-14 17:43:00,,0834.0,5.01,0.00,31.3,26.3,00.0,39.5,31.5,35.3,0020.99,0010.80
2021-08-14 17:44:00,,0834.0,4.99,0.00,31.5,26.6,00.0,39.5,31.7,34.6,0021.23,0010.86
2021-08-14 17:45:00,,0834.0,5.00,0.00,31.7,27.1,00.0,39.5,31.8,33.9,0022.96,0010.89
2021-08-14 17:46:00,,0834.0,5.01,0.00,31.8,27.5,00.0,39.5,31.8,34.2,0022.78,0010.83
2021-08-14 17:47:00,,0834.0,5.00,0.00,31.8,27.8,00.0,39.6,31.8,33.3,0023.36,0010.78
2021-08-14 17:48:00,,0834.0,4.98,0.00,31.9,28.1,00.0,39.7,31.9,33.3,0024.38,0010.77
2021-08-14 17:49:00,,0834.0,5.01,0.00,31.9,28.1,00.0,39.8,31.9,33.3,0024.07,0010.77
2021-08-14 17:50:00,,0834.0,4.99,0.00,31.8,26.9,00.0,39.8,31.5,33.2,0024.58,0010.78
2021-08-14 17:51:00,,0834.0,5.00,0.00,31.6,26.1,00.0,39.8,31.2,33.2,0025.36,0010.70
2021-08-14 17:52:00,,0833.9,5.01,0.00,31.5,26.3,00.0,39.8,31.3,33.5,0025.45,0010.64
2021-08-14 17:53:00,,0833.8,5.00,0.00,31.4,26.6,00.0,39.8,31.4,34.0,0027.83,0010.64
2021-08-14 17:54:00,,0833.9,4.99,0.00,31.3,27.1,00.0,39.8,31.5,35.1,0027.99,0010.67
2021-08-14 17:55:00,,0833.9,5.00,0.00,31.3,27.5,00.0,39.8,31.6,34.6,0027.55,0010.67
2021-08-14 17:56:00,,0833.9,5.00,0.00,31.4,27.8,00.0,39.8,31.8,34.1,0026.32,0010.65
2021-08-14 17:57:00,,0833.9,4.99,0.00,31.5,28.1,00.0,39.8,31.9,34.2,0027.02,0010.71
2021-08-14 17:58:00,,0833.9,5.01,0.00,31.5,28.3,00.0,39.8,31.9,34.4,0026.45,0010.77
2021-08-14 17:59:00,,0833.9,4.98,0.00,31.4,27.7,00.0,39.8,31.7,33.8,0025.18,0010.79
